Weather History for Nasa Shuttle, FL

Change the Weather History Date:

Sunday, March 24, 2013

  Actual Average Record
Temperature  
Mean Temperature 74 °F -  
Max Temperature 84 °F 74 °F 84 °F (2011)
Min Temperature 64 °F 56 °F 46 °F (1998)
Cooling Degree Days 8    
Growing Degree Days 24 (Base 50)    
Moisture  
Dew Point 68 °F    
Average Humidity 87    
Maximum Humidity 100    
Minimum Humidity 59    
Precipitation  
Precipitation 0.75 in - - ()
Sea Level Pressure  
Sea Level Pressure 29.72 in    
Wind  
Wind Speed 11 mph (SW)    
Max Wind Speed 36 mph    
Max Gust Speed 60 mph    
Visibility 8 miles    
Events Rain , Thunderstorm    
Averages and records for this station are not official NWS values.
T = Trace of Precipitation, MM = Missing Value Source: NWS Daily Summary

Daily Weather History Graph

Daily Weather History Graph

Search for Another Location

Airport:

Trip Planner

Search our weather history database for the weather conditions in past years. The results will help you decide how hot, cold, wet, or windy it might be!

Date:

Astronomy

Mar. 24, 2013 Rise Set
Actual Time 7:21 AM EDT 7:36 PM EDT
Civil Twilight 6:58 AM EDT 8:00 PM EDT
Nautical Twilight 6:30 AM EDT 8:27 PM EDT
Astronomical Twilight 6:02 AM EDT 8:55 PM EDT
Moon 5:12 PM EDT (3/24) 5:19 AM EDT (3/24)
Length of Visible Light 13h 01m
Length of Day
12h 14m
Waxing Gibbous, 91% of the Moon is Illuminated
Mar 24
Waxing Gibbous
Mar 27
Full
Apr 3
Last Quarter
Apr 10
New
Apr 18
First Quarter

Hourly Weather History & Observations

Time (EDT) Temp. Heat Index Dew Point Humidity Pressure Visibility Wind Dir Wind Speed Gust Speed Precip Events Conditions
12:58 AM 69.6 °F - 68.0 °F 95% 29.86 in 10.0 mi ESE 8.1 mph - N/A   Mostly Cloudy
1:18 AM 69.8 °F - 68.0 °F 94% 29.85 in 10.0 mi ESE 6.9 mph - N/A   Mostly Cloudy
1:58 AM 70.2 °F - 68.7 °F 95% 29.83 in 10.0 mi ESE 6.9 mph - N/A   Overcast
2:43 AM 69.8 °F - 68.0 °F 94% 29.81 in 10.0 mi ESE 6.9 mph - N/A   Mostly Cloudy
2:58 AM 70.5 °F - 68.9 °F 95% 29.80 in 10.0 mi SE 6.9 mph - N/A   Mostly Cloudy
3:58 AM 70.9 °F - 69.1 °F 94% 29.77 in 10.0 mi SE 6.9 mph - N/A   Mostly Cloudy
4:58 AM 70.5 °F - 70.2 °F 99% 29.75 in 10.0 mi South 8.1 mph - N/A   Scattered Clouds
5:33 AM 71.6 °F - 69.8 °F 94% 29.73 in 10.0 mi South 9.2 mph - N/A   Mostly Cloudy
5:58 AM 70.5 °F - 70.2 °F 99% 29.73 in 10.0 mi South 8.1 mph - N/A   Mostly Cloudy
6:18 AM 69.8 °F - 69.8 °F 100% 29.72 in 10.0 mi South 8.1 mph - N/A   Scattered Clouds
6:58 AM 70.5 °F - 69.1 °F 95% 29.72 in 10.0 mi South 8.1 mph - N/A   Scattered Clouds
7:03 AM 71.6 °F - 68.0 °F 88% 29.72 in 10.0 mi South 10.4 mph - N/A   Mostly Cloudy
7:08 AM 71.6 °F - 68.0 °F 88% 29.72 in 10.0 mi South 9.2 mph - N/A   Scattered Clouds
7:58 AM 71.2 °F - 67.3 °F 87% 29.71 in 10.0 mi SSW 11.5 mph - N/A   Mostly Cloudy
8:58 AM 73.8 °F - 69.6 °F 87% 29.70 in 10.0 mi SSW 13.8 mph 19.6 mph N/A   Overcast
9:03 AM 73.4 °F - 69.8 °F 88% 29.71 in 10.0 mi SSW 13.8 mph 19.6 mph N/A   Overcast
9:08 AM 73.4 °F - 69.8 °F 88% 29.71 in 10.0 mi SSW 10.4 mph 19.6 mph N/A   Overcast
9:58 AM 73.2 °F - 70.9 °F 92% 29.75 in 10.0 mi SW 15.0 mph 21.9 mph N/A   Overcast
9:59 AM 73.4 °F - 71.6 °F 94% 29.75 in 10.0 mi SW 15.0 mph 21.9 mph N/A Rain Light Rain
10:03 AM 73.4 °F - 71.6 °F 94% 29.74 in 10.0 mi SW 12.7 mph 21.9 mph N/A   Overcast
10:33 AM 75.2 °F - 71.6 °F 89% 29.75 in 10.0 mi SW 11.5 mph - N/A   Mostly Cloudy
10:58 AM 75.4 °F - 71.1 °F 86% 29.75 in 10.0 mi SW 11.5 mph - 0.00 in   Overcast
11:38 AM 78.8 °F - 69.8 °F 74% 29.73 in 10.0 mi SW 17.3 mph 29.9 mph N/A   Overcast
11:43 AM 78.8 °F - 69.8 °F 74% 29.73 in 10.0 mi SW 18.4 mph 29.9 mph N/A   Overcast
11:58 AM 79.7 °F - 69.4 °F 71% 29.72 in 10.0 mi SW 20.7 mph 28.8 mph N/A   Mostly Cloudy
12:03 PM 80.6 °F 83.9 °F 69.8 °F 70% 29.72 in 10.0 mi WSW 16.1 mph 27.6 mph N/A   Mostly Cloudy
12:58 PM 83.7 °F 86.7 °F 68.2 °F 59% 29.70 in 10.0 mi WSW 19.6 mph 36.8 mph N/A   Mostly Cloudy
1:58 PM 82.8 °F 85.5 °F 67.8 °F 60% 29.67 in 10.0 mi WSW 19.6 mph 27.6 mph N/A   Mostly Cloudy
2:58 PM 80.6 °F 83.2 °F 68.0 °F 65% 29.65 in 10.0 mi WSW 13.8 mph 23.0 mph N/A Thunderstorm Overcast
3:08 PM 80.6 °F 83.2 °F 68.0 °F 65% 29.66 in 10.0 mi West 12.7 mph - N/A Thunderstorm Light Drizzle
3:11 PM 80.6 °F 83.2 °F 68.0 °F 65% 29.66 in 10.0 mi WNW 26.5 mph 29.9 mph N/A Thunderstorm Light Drizzle
3:12 PM 80.6 °F 83.2 °F 68.0 °F 65% 29.68 in 10.0 mi WNW 35.7 mph 50.6 mph N/A Rain , Thunderstorm Light Thunderstorms and Rain
3:17 PM 77.0 °F - 66.2 °F 69% 29.75 in 0.2 mi West 24.2 mph 59.8 mph N/A Rain , Thunderstorm Heavy Thunderstorms and Rain
3:19 PM 71.6 °F - 64.4 °F 78% 29.75 in 0.2 mi WSW 19.6 mph 59.8 mph N/A Rain , Thunderstorm Heavy Thunderstorms and Rain
3:20 PM 71.6 °F - 64.4 °F 78% 29.75 in 0.2 mi WSW 19.6 mph 59.8 mph N/A Rain , Thunderstorm Heavy Thunderstorms and Rain
3:21 PM 69.8 °F - 62.6 °F 78% 29.74 in 0.2 mi SW 18.4 mph 59.8 mph N/A Rain , Thunderstorm Heavy Thunderstorms and Rain
3:22 PM 68.0 °F - 62.6 °F 83% 29.74 in 0.2 mi SW 16.1 mph 59.8 mph N/A Rain , Thunderstorm Heavy Thunderstorms and Rain
3:23 PM 68.0 °F - 62.6 °F 83% 29.73 in 0.2 mi SSW 15.0 mph 59.8 mph N/A Rain , Thunderstorm Heavy Thunderstorms and Rain
3:24 PM 66.2 °F - 60.8 °F 83% 29.72 in 0.2 mi South 16.1 mph 57.5 mph N/A Rain , Thunderstorm Heavy Thunderstorms and Rain
3:25 PM 66.2 °F - 60.8 °F 83% 29.71 in 0.2 mi South 16.1 mph 49.5 mph N/A Rain , Thunderstorm Heavy Thunderstorms and Rain
3:30 PM 64.4 °F - 60.8 °F 88% 29.68 in 1.8 mi SW 16.1 mph 21.9 mph N/A Rain , Thunderstorm Light Thunderstorms and Rain
3:35 PM 64.4 °F - 62.6 °F 94% 29.68 in 7.0 mi WSW 12.7 mph 24.2 mph N/A Rain , Thunderstorm Light Thunderstorms and Rain
3:38 PM 64.4 °F - 62.6 °F 94% 29.68 in 10.0 mi WSW 10.4 mph 24.2 mph N/A Rain , Thunderstorm Light Rain
3:46 PM 66.2 °F - 62.6 °F 88% 29.68 in 9.0 mi WSW 10.4 mph - N/A Rain , Thunderstorm Light Thunderstorms and Rain
3:58 PM 66.2 °F - 62.6 °F 88% 29.68 in 10.0 mi West 16.1 mph 20.7 mph 0.61 in Rain , Thunderstorm Light Thunderstorms and Rain
4:21 PM 66.2 °F - 64.4 °F 94% 29.68 in 8.0 mi WSW 13.8 mph 19.6 mph N/A Rain , Thunderstorm Rain
4:26 PM 66.2 °F - 64.4 °F 94% 29.65 in 8.0 mi WSW 10.4 mph 19.6 mph N/A Rain , Thunderstorm Light Thunderstorms and Rain
4:51 PM 66.2 °F - 64.4 °F 94% 29.66 in 10.0 mi West 11.5 mph - N/A Rain , Thunderstorm Light Rain
4:58 PM 67.5 °F - 64.8 °F 91% 29.66 in 10.0 mi West 10.4 mph - 0.14 in Rain , Thunderstorm Light Rain
4:59 PM 68.0 °F - 66.2 °F 94% 29.65 in 10.0 mi West 10.4 mph - N/A Thunderstorm Mostly Cloudy
5:58 PM 73.4 °F - 69.8 °F 88% 29.65 in 10.0 mi SW 6.9 mph - 0.00 in   Mostly Cloudy
6:58 PM 73.9 °F - 71.1 °F 91% 29.65 in 10.0 mi SW 9.2 mph - N/A   Partly Cloudy
7:58 PM 72.7 °F - 71.6 °F 96% 29.67 in 10.0 mi SW 8.1 mph - N/A   Mostly Cloudy
8:03 PM 73.4 °F - 71.6 °F 94% 29.67 in 10.0 mi SW 6.9 mph - N/A   Mostly Cloudy
8:13 PM 71.6 °F - 71.6 °F 100% 29.67 in 10.0 mi SW 6.9 mph - N/A   Mostly Cloudy
8:58 PM 72.1 °F - 71.8 °F 99% 29.69 in 10.0 mi SW 6.9 mph - N/A   Clear
9:38 PM 71.6 °F - 71.6 °F 100% 29.70 in 10.0 mi SW 5.8 mph - N/A   Mostly Cloudy
9:43 PM 71.6 °F - 71.6 °F 100% 29.70 in 10.0 mi SW 6.9 mph - N/A   Scattered Clouds
9:58 PM 72.3 °F - 72.0 °F 99% 29.71 in 10.0 mi WSW 8.1 mph - N/A   Partly Cloudy
10:58 PM 71.2 °F - 71.2 °F 100% 29.72 in 10.0 mi WSW 8.1 mph - N/A   Clear
11:58 PM 70.7 °F - 70.3 °F 99% 29.72 in 10.0 mi West 8.1 mph - N/A   Clear